Flag Weather past 2 weeks in Viana do Castelo, Portugal

Now
57 °F

Passing clouds.


Feels Like: 53 °F
Forecast: N/A
Wind: 22 mph from South

Location: Porto / Pedras Rubras

Current Time: Nov 27, 2014 at 2:52:41 PM

Latest Report: Nov 27, 2014 at 2:00 PM


Visibility: N/A

Pressure: 29.30 "Hg

Humidity: 77%

Dew point: 50 °F

Location of Viana do CasteloLocation

Historic Weather in Viana do Castelo — Graph

°F

Viana do Castelo temperature yesterday

Maximum temperature yesterday: 61 °F (at 1:30 PM)
Minimum temperature yesterday: 48 °F (at 12:00 AM)
Average temperature yesterday: 53 °F

Past Weeks' High & Low Weather Summary

 TemperatureHumidityPressure
High72 °F (Nov 21, 1:30 PM)100% (Nov 13, 3:30 AM)30.09 "Hg (Nov 13, 3:30 AM)
Low48 °F (Nov 25, 11:00 PM)55% (Nov 26, 2:30 PM)29.30 "Hg (Nov 27, 1:30 PM)
Average58 °F85%29.85 "Hg
* Reported Nov 12 1:00 PM — Nov 27 1:30 PM, Viana do Castelo, Weather by CustomWeather, © 2014

Note: Actual official high and low records may vary slightly from our data, if they occured in-between our weather recording intervals... More about our weather records

Advertising

Viana do Castelo weather history for previous 24 hours

 ConditionsComfort  
Time TempWeatherWind HumidityBarometerVisibility
1:30 PM
Nov 27
57 °FScattered clouds.17 mph82%29.30 "HgN/A
1:00 PM57 °FScattered clouds.18 mph82%29.33 "HgN/A
12:30 PM59 °FScattered clouds.18 mph77%29.36 "HgN/A
12:00 PM59 °FPassing clouds.15 mph77%29.36 "HgN/A
11:30 AM59 °FPassing clouds.12 mph72%29.39 "HgN/A
11:00 AM57 °FScattered clouds.12 mph77%29.42 "HgN/A
10:30 AM55 °FScattered clouds.9 mph77%29.45 "HgN/A
10:00 AM55 °FScattered clouds.9 mph77%29.45 "HgN/A
9:30 AM55 °FPassing clouds.8 mph77%29.45 "HgN/A
9:00 AM54 °FPassing clouds.7 mph82%29.45 "HgN/A
8:00 AM52 °FPartly sunny.9 mph88%29.47 "HgN/A
7:30 AM52 °FLight rain. Passing clouds.9 mph88%29.50 "HgN/A
7:00 AM52 °FLight rain. Overcast.6 mph88%29.50 "Hg6 mi
6:30 AM54 °FLight rain. Passing clouds.7 mph77%29.53 "Hg5 mi
6:00 AM54 °FPassing clouds.5 mph77%29.53 "HgN/A
5:30 AM54 °FPassing clouds.6 mph77%29.53 "HgN/A
5:00 AM54 °FPassing clouds.5 mph77%29.53 "HgN/A
4:30 AM54 °FClear.7 mph72%29.56 "Hg10 mi
4:00 AM54 °FClear.5 mph72%29.56 "Hg10 mi
3:30 AM54 °FClear.7 mph72%29.56 "Hg10 mi
3:00 AM54 °FPassing clouds.6 mph72%29.59 "HgN/A
2:30 AM54 °FClear.6 mph72%29.59 "Hg10 mi
2:00 AM54 °FPassing clouds.7 mph72%29.59 "HgN/A
1:30 AM54 °FClear.6 mph72%29.62 "Hg10 mi
1:00 AM54 °FClear.7 mph72%29.62 "Hg10 mi
12:30 AM54 °FPassing clouds.6 mph72%29.65 "HgN/A
12:00 AM52 °FClear.6 mph82%29.65 "Hg10 mi
11:30 PM
Nov 26
52 °FPassing clouds.5 mph82%29.68 "HgN/A
11:00 PM54 °FPassing clouds.6 mph77%29.68 "HgN/A
10:30 PM54 °FPassing clouds.5 mph77%29.68 "HgN/A
10:00 PM55 °FPassing clouds.7 mph72%29.71 "HgN/A
9:00 PM55 °FPassing clouds.7 mph72%29.74 "HgN/A
8:30 PM55 °FPassing clouds.7 mph67%29.74 "HgN/A
8:00 PM54 °FPassing clouds.7 mph77%29.74 "HgN/A
7:30 PM54 °FPassing clouds.6 mph77%29.74 "HgN/A
7:00 PM54 °FPassing clouds.3 mph77%29.74 "HgN/A
6:30 PM54 °FPassing clouds.3 mph77%29.74 "HgN/A
6:00 PM54 °FPassing clouds.6 mph77%29.74 "HgN/A
5:30 PM55 °FPassing clouds.6 mph72%29.74 "HgN/A
5:00 PM55 °FPassing clouds.5 mph72%29.74 "HgN/A
4:48 PM55 °FPassing clouds.5 mph72%29.74 "HgN/A
4:30 PM57 °FPassing clouds.6 mph67%29.74 "HgN/A
4:00 PM57 °FPassing clouds.7 mph67%29.74 "HgN/A
3:30 PM59 °FPassing clouds.7 mph63%29.77 "HgN/A
3:00 PM59 °FPassing clouds.7 mph63%29.77 "HgN/A
2:30 PM61 °FPassing clouds.9 mph55%29.77 "HgN/A
2:00 PM59 °FScattered clouds.7 mph63%29.80 "HgN/A
Weather by CustomWeather, © 2014

See weather overviewHow to use our weather pages